TimeEST,TemperatureF,Dew PointF,Humidity,Sea Level PressureIn,VisibilityMPH,Wind Direction,Wind SpeedMPH,Gust SpeedMPH,PrecipitationIn,Events,Conditions,WindDirDegrees,DateUTC
12:54 AM,19.0,10.0,68,30.41,10.0,West,6.9,-,N/A,,Scattered Clouds,270,2013-11-25 05:54:00
1:54 AM,19.0,10.0,68,30.40,10.0,WNW,8.1,-,N/A,,Scattered Clouds,300,2013-11-25 06:54:00
2:54 AM,19.0,8.1,62,30.41,10.0,WNW,6.9,-,N/A,,Scattered Clouds,290,2013-11-25 07:54:00
3:54 AM,19.9,10.0,65,30.40,10.0,South,9.2,-,N/A,,Mostly Cloudy,180,2013-11-25 08:54:00
4:01 AM,21.2,10.4,63,30.36,10.0,SSW,4.6,-,N/A,,Overcast,200,2013-11-25 09:01:00
4:54 AM,21.9,12.0,66,30.39,8.0,SSW,6.9,-,0.00,Snow,Light Snow,210,2013-11-25 09:54:00
5:54 AM,21.9,17.1,82,30.38,9.0,SSE,6.9,-,0.00,Snow,Light Snow,160,2013-11-25 10:54:00
6:39 AM,23.0,17.6,80,30.32,9.0,South,10.4,-,0.00,Snow,Light Snow,180,2013-11-25 11:39:00
6:52 AM,23.0,19.4,86,30.32,9.0,South,9.2,-,0.00,Snow,Light Snow,180,2013-11-25 11:52:00
6:54 AM,23.0,19.0,85,30.36,9.0,South,10.4,-,0.00,Snow,Light Snow,180,2013-11-25 11:54:00
7:54 AM,24.1,16.0,71,30.35,10.0,SSW,16.1,-,0.00,Snow,Light Snow,200,2013-11-25 12:54:00
8:54 AM,25.0,12.9,60,30.35,10.0,SSW,21.9,27.6,0.00,Snow,Light Snow,200,2013-11-25 13:54:00
9:54 AM,26.1,12.9,58,30.32,10.0,SSW,21.9,33.4,0.00,,Mostly Cloudy,200,2013-11-25 14:54:00
10:06 AM,26.6,12.2,55,30.28,10.0,SSW,21.9,32.2,N/A,,Mostly Cloudy,210,2013-11-25 15:06:00
10:54 AM,27.0,12.0,53,30.30,10.0,SSW,20.7,25.3,N/A,,Scattered Clouds,210,2013-11-25 15:54:00
11:54 AM,28.0,10.9,49,30.26,10.0,SSW,19.6,-,N/A,,Mostly Cloudy,210,2013-11-25 16:54:00
12:54 PM,28.9,10.0,45,30.22,10.0,SSW,16.1,-,N/A,,Mostly Cloudy,200,2013-11-25 17:54:00
1:54 PM,32.0,10.0,40,30.19,10.0,SSW,11.5,20.7,N/A,,Mostly Cloudy,200,2013-11-25 18:54:00
2:54 PM,33.1,10.9,40,30.16,10.0,South,11.5,-,N/A,,Mostly Cloudy,190,2013-11-25 19:54:00
3:54 PM,33.1,9.0,37,30.14,10.0,SSW,15.0,-,N/A,,Mostly Cloudy,200,2013-11-25 20:54:00
4:54 PM,33.1,9.0,37,30.14,10.0,SSW,18.4,26.5,N/A,,Overcast,200,2013-11-25 21:54:00
5:54 PM,33.1,9.0,37,30.14,10.0,SSW,19.6,24.2,N/A,,Overcast,200,2013-11-25 22:54:00
6:54 PM,33.1,10.0,38,30.12,10.0,SSW,16.1,-,N/A,,Overcast,200,2013-11-25 23:54:00
7:54 PM,34.0,8.1,34,30.11,10.0,SSW,19.6,25.3,N/A,,Overcast,210,2013-11-26 00:54:00
8:54 PM,35.1,15.1,44,30.12,10.0,SW,16.1,27.6,0.00,Snow,Light Snow,220,2013-11-26 01:54:00
9:54 PM,33.1,19.0,56,30.12,7.0,SSW,21.9,31.1,0.00,Snow,Light Snow,210,2013-11-26 02:54:00
10:18 PM,32.0,24.8,75,30.10,7.0,SSW,25.3,31.1,0.00,Snow,Light Snow,210,2013-11-26 03:18:00
10:54 PM,30.9,23.0,72,30.14,5.0,SSW,19.6,28.8,0.00,Snow,Light Snow,210,2013-11-26 03:54:00
11:54 PM,30.9,25.0,79,30.13,7.0,SSW,20.7,28.8,0.01,Snow,Light Snow,210,2013-11-26 04:54:00